TimeAKST,TemperatureF,Dew PointF,Humidity,Sea Level PressureIn,VisibilityMPH,Wind Direction,Wind SpeedMPH,Gust SpeedMPH,PrecipitationIn,Events,Conditions,WindDirDegrees,DateUTC
12:54 AM,37.0,34.0,89,29.78,10.0,East,11.5,23.0,0.00,,Overcast,90,2013-03-01 09:54:00
1:15 AM,37.4,33.8,87,29.77,10.0,East,12.7,26.5,N/A,,Overcast,80,2013-03-01 10:15:00
1:51 AM,37.4,33.8,87,29.80,10.0,East,11.5,25.3,N/A,,Mostly Cloudy,100,2013-03-01 10:51:00
1:54 AM,37.0,34.0,89,29.80,10.0,East,10.4,21.9,N/A,,Mostly Cloudy,90,2013-03-01 10:54:00
2:10 AM,37.4,33.8,87,29.80,10.0,East,15.0,21.9,N/A,,Mostly Cloudy,90,2013-03-01 11:10:00
2:17 AM,37.4,33.8,87,29.79,10.0,East,11.5,21.9,N/A,,Scattered Clouds,90,2013-03-01 11:17:00
2:27 AM,37.4,33.8,87,29.79,10.0,East,12.7,20.7,N/A,,Mostly Cloudy,80,2013-03-01 11:27:00
2:50 AM,37.4,33.8,87,29.80,10.0,East,12.7,25.3,N/A,,Overcast,80,2013-03-01 11:50:00
2:54 AM,37.0,34.0,89,29.81,10.0,East,12.7,19.6,N/A,,Overcast,80,2013-03-01 11:54:00
3:41 AM,35.6,33.8,93,29.82,7.0,ENE,15.0,23.0,0.01,Rain,Rain,60,2013-03-01 12:41:00
3:54 AM,35.1,33.1,92,29.84,4.0,East,11.5,21.9,0.02,Snow,Light Snow,80,2013-03-01 12:54:00
4:03 AM,33.8,32.0,93,29.83,2.0,East,10.4,21.9,0.02,Snow,Light Snow,80,2013-03-01 13:03:00
4:14 AM,35.6,33.8,93,29.82,3.0,ENE,11.5,17.3,0.04,Snow,Light Snow,70,2013-03-01 13:14:00
4:24 AM,35.6,32.0,87,29.83,2.0,East,9.2,21.9,0.07,Snow,Light Snow,80,2013-03-01 13:24:00
4:51 AM,35.6,33.8,93,29.83,4.0,ENE,8.1,17.3,0.11,Snow,Light Snow,70,2013-03-01 13:51:00
4:54 AM,35.1,33.1,92,29.83,5.0,ENE,11.5,19.6,0.11,Snow,Light Snow,70,2013-03-01 13:54:00
7:54 AM,35.1,33.1,92,29.84,8.0,ENE,10.4,19.6,0.04,Rain,Light Rain,70,2013-03-01 16:54:00
8:54 AM,36.0,34.0,93,29.85,9.0,East,6.9,-,0.05,Rain,Light Rain,80,2013-03-01 17:54:00
9:54 AM,36.0,34.0,93,29.87,8.0,East,9.2,-,0.04,Rain,Light Rain,80,2013-03-01 18:54:00
10:43 AM,33.8,33.8,100,29.88,1.8,ENE,8.1,-,0.05,Snow,Light Snow,70,2013-03-01 19:43:00
10:54 AM,34.0,32.0,92,29.89,1.0,ENE,9.2,16.1,0.08,Snow,Light Snow,60,2013-03-01 19:54:00
11:19 AM,33.8,33.8,100,29.89,3.0,ENE,10.4,17.3,0.03,Snow,Light Snow,70,2013-03-01 20:19:00
11:54 AM,36.0,34.0,93,29.91,10.0,Variable,4.6,-,0.03,Rain,Light Rain,0,2013-03-01 20:54:00
12:34 PM,37.4,35.6,93,29.91,10.0,East,5.8,-,0.00,,Overcast,80,2013-03-01 21:34:00
12:54 PM,37.9,35.1,89,29.92,10.0,East,10.4,-,0.00,Rain,Light Rain,90,2013-03-01 21:54:00
1:22 PM,39.2,35.6,87,29.91,10.0,East,9.2,19.6,0.00,,Overcast,90,2013-03-01 22:22:00
1:54 PM,37.9,35.1,89,29.92,10.0,East,9.2,20.7,0.00,,Overcast,90,2013-03-01 22:54:00
2:54 PM,37.9,35.1,89,29.93,10.0,East,9.2,17.3,N/A,,Overcast,90,2013-03-01 23:54:00
3:04 PM,37.4,35.6,93,29.92,10.0,East,6.9,17.3,N/A,,Overcast,100,2013-03-02 00:04:00
3:54 PM,37.9,35.1,89,29.94,10.0,East,8.1,16.1,N/A,,Overcast,90,2013-03-02 00:54:00
4:54 PM,37.9,36.0,93,29.94,10.0,East,9.2,-,N/A,,Overcast,80,2013-03-02 01:54:00
5:54 PM,37.0,35.1,93,29.95,10.0,ENE,9.2,16.1,0.00,Rain,Light Rain,70,2013-03-02 02:54:00
6:42 PM,37.4,35.6,93,29.96,10.0,ENE,6.9,-,0.00,,Overcast,70,2013-03-02 03:42:00
6:54 PM,37.9,35.1,89,29.97,10.0,ENE,3.5,-,0.00,,Overcast,70,2013-03-02 03:54:00
7:40 PM,37.4,35.6,93,29.96,10.0,Calm,Calm,-,0.00,Rain,Light Rain,0,2013-03-02 04:40:00
7:54 PM,37.0,35.1,93,29.98,10.0,ENE,3.5,-,0.00,Rain,Light Rain,70,2013-03-02 04:54:00
8:11 PM,37.4,35.6,93,29.97,10.0,Calm,Calm,-,0.00,Rain,Light Rain,0,2013-03-02 05:11:00
8:54 PM,35.1,34.0,96,29.98,10.0,West,4.6,-,0.00,,Overcast,270,2013-03-02 05:54:00
9:12 PM,35.6,33.8,93,29.98,10.0,Variable,3.5,-,N/A,,Overcast,0,2013-03-02 06:12:00
9:54 PM,36.0,34.0,93,29.99,10.0,WNW,8.1,-,N/A,,Overcast,300,2013-03-02 06:54:00
10:18 PM,35.6,33.8,93,29.98,10.0,West,6.9,-,N/A,,Overcast,280,2013-03-02 07:18:00
10:31 PM,35.6,33.8,93,29.98,10.0,WNW,3.5,-,N/A,,Overcast,300,2013-03-02 07:31:00
10:38 PM,35.6,33.8,93,29.99,10.0,WNW,8.1,-,N/A,,Overcast,290,2013-03-02 07:38:00
10:54 PM,36.0,34.0,93,30.00,10.0,WNW,3.5,-,N/A,,Overcast,300,2013-03-02 07:54:00
11:54 PM,35.1,34.0,96,30.00,10.0,WNW,6.9,-,N/A,,Overcast,300,2013-03-02 08:54:00